Location: Fort Worth, Tx
(32.7431°N, 97.3695°W)
Time: 11:15:52
(UTC-04:00)

Explorer 11/Cluster Stage 4 - Pass Details

Date: 02 March 2024
Orbit: 465 x 1219 km, 28.8° (Epoch: 24 April)

Event Time Altitude Azimuth Distance (km) Brightness Sun altitude
Exits shadow 06:44:46 11° 226° (SW) 2,838 9.0 -15.6°
Maximum altitude 06:45:56 11° 216° (SW) 2,766 9.0 -15.4°
Drops below altitude 10° 06:47:54 10° 200° (SSW) 2,788 9.2 -15.0°
Sets 06:52:42 0° 167° (SSE) 3,526 10.1 -14.0°
